Location: Berg
(48.5667°N, 13.9833°E)
Time: 03:13:20
(UTC+00:00)

MOS 1 Rocket - Pass Details

Date: 09 April 2020
Orbit: 614 x 831 km, 97.4° (Epoch: 04 June)

Event Time Altitude Azimuth Distance (km) Brightness Sun altitude
Rises 19:14:23 0° 14° (NNE) 3,347 7.0 -14.2°
Reaches altitude 10° 19:16:44 10° 17° (NNE) 2,427 6.3 -14.5°
Maximum altitude 19:22:10 71° 101° (ESE) 881 3.6 -15.3°
Drops below altitude 10° 19:27:35 10° 186° (S) 2,427 5.8 -16.1°
Sets 19:29:56 0° 188° (S) 3,346 6.6 -16.4°
